BEIDOU 14               
1 38774U 12050A   19259.54519968  .00000019  00000-0  00000-0 0  9990
2 38774  54.8671 145.8084 0033572 212.3145 147.5694  1.86251814 31927
BEIDOU 15               
1 38775U 12050B   19260.49625948  .00000018  00000-0  00000+0 0  9991
2 38775  54.9737 145.5374 0021342 247.9686 320.5232  1.86232473 47767